UAE2K OMDB-HECA

Flight info

Callsign UAE2K
Flight time 3h 49m
Altitude 38000
Route ANVIX R401 GIDIS G783 ASNUR L883 KITUB Y511 ELONU G799 PMA V10 PEGUR Z712 WEJ L677 CVO
Aircraft A388/J-SADE2E3FGHIJ3J4J5M1RWXY/LB1D1

Departure

Time 2026-05-04 12:44
Airport Dubai International Airport (OMDB)

Arrival

Time 2026-05-04 16:34
Airport Cairo International Airport (HECA)
Time Latitude Longitude Altitude Speed Heading
2026-05-04 11:53 25.24397 55.37294 26 ft 0 kts 211°
2026-05-04 11:55 25.24392 55.37290 26 ft 0 kts 211°
2026-05-04 12:25 25.24396 55.37293 26 ft 2 kts 211°
2026-05-04 12:26 25.24413 55.37305 26 ft 3 kts 211°
2026-05-04 12:26 25.24430 55.37316 25 ft 3 kts 211°
2026-05-04 12:26 25.24447 55.37326 25 ft 3 kts 193°
2026-05-04 12:26 25.24466 55.37328 24 ft 3 kts 165°
2026-05-04 12:27 25.24484 55.37319 25 ft 3 kts 140°
2026-05-04 12:27 25.24496 55.37305 25 ft 2 kts 123°
2026-05-04 12:27 25.24503 55.37294 24 ft 3 kts 122°
2026-05-04 12:27 25.24505 55.37290 25 ft 1 kts 122°
2026-05-04 12:30 25.24505 55.37291 25 ft 1 kts 122°
2026-05-04 12:31 25.24499 55.37301 25 ft 0 kts 122°
2026-05-04 12:40 25.24498 55.37302 27 ft 2 kts 122°
2026-05-04 12:40 25.24480 55.37334 27 ft 8 kts 122°
2026-05-04 12:40 25.24441 55.37412 27 ft 15 kts 108°
2026-05-04 12:40 25.24429 55.37547 27 ft 20 kts 92°
2026-05-04 12:41 25.24403 55.37657 28 ft 7 kts 122°
2026-05-04 12:41 25.24381 55.37714 28 ft 7 kts 78°
2026-05-04 12:41 25.24417 55.37765 30 ft 9 kts 34°
2026-05-04 12:41 25.24471 55.37805 33 ft 9 kts 34°
2026-05-04 12:42 25.24532 55.37850 33 ft 12 kts 34°
2026-05-04 12:42 25.24602 55.37903 31 ft 9 kts 34°
2026-05-04 12:42 25.24654 55.37942 30 ft 9 kts 34°
2026-05-04 12:42 25.24713 55.37984 31 ft 11 kts 31°
2026-05-04 12:43 25.24764 55.38018 34 ft 6 kts 31°
2026-05-04 12:43 25.24799 55.38026 35 ft 5 kts 333°
2026-05-04 12:43 25.24823 55.37996 35 ft 7 kts 302°
2026-05-04 12:43 25.24950 55.37769 35 ft 74 kts 301°
2026-05-04 12:44 25.25346 55.37053 35 ft 140 kts 301°
2026-05-04 12:44 25.25928 55.36020 108 ft 169 kts 300°
2026-05-04 12:44 25.26527 55.34948 729 ft 160 kts 301°
2026-05-04 12:44 25.27115 55.33887 1281 ft 163 kts 301°
2026-05-04 12:45 25.27696 55.32841 1890 ft 161 kts 302°
2026-05-04 12:45 25.28292 55.31761 2421 ft 164 kts 302°
2026-05-04 12:45 25.28882 55.30685 2949 ft 166 kts 303°
2026-05-04 12:45 25.29339 55.29482 3269 ft 179 kts 279°
2026-05-04 12:46 25.29092 55.28087 3469 ft 199 kts 246°
2026-05-04 12:46 25.28429 55.26713 3682 ft 208 kts 245°
2026-05-04 12:46 25.27764 55.25267 4010 ft 211 kts 246°
2026-05-04 12:46 25.27120 55.23802 4307 ft 213 kts 246°
2026-05-04 12:47 25.26483 55.22320 4595 ft 214 kts 248°
2026-05-04 12:47 25.25849 55.20831 4865 ft 217 kts 247°
2026-05-04 12:47 25.25194 55.19280 4949 ft 228 kts 248°
2026-05-04 12:47 25.24377 55.17727 5011 ft 249 kts 229°
2026-05-04 12:48 25.22873 55.16708 5551 ft 261 kts 198°
2026-05-04 12:48 25.21056 55.16554 6328 ft 265 kts 178°
2026-05-04 12:48 25.19209 55.16958 6792 ft 279 kts 155°
2026-05-04 12:48 25.17666 55.18233 7453 ft 281 kts 128°
2026-05-04 12:49 25.16653 55.20088 8020 ft 288 kts 114°
2026-05-04 12:49 25.15789 55.22179 8333 ft 307 kts 112°
2026-05-04 12:49 25.14898 55.24340 8999 ft 311 kts 113°
2026-05-04 12:49 25.13944 55.26508 9663 ft 316 kts 115°
2026-05-04 12:50 25.12939 55.28674 10319 ft 318 kts 116°
2026-05-04 12:50 25.11908 55.30836 11014 ft 320 kts 116°
2026-05-04 12:50 25.10862 55.33010 11693 ft 321 kts 116°
2026-05-04 12:50 25.09854 55.35238 12124 ft 333 kts 121°
2026-05-04 12:51 25.08345 55.37277 12307 ft 352 kts 132°
2026-05-04 12:51 25.06610 55.39270 12490 ft 369 kts 134°
2026-05-04 12:51 25.04780 55.41326 12912 ft 378 kts 134°
2026-05-04 12:51 25.02945 55.43410 13590 ft 380 kts 133°
2026-05-04 12:52 25.01130 55.45500 14121 ft 383 kts 133°
2026-05-04 12:52 24.99267 55.47666 14689 ft 387 kts 133°
2026-05-04 12:52 24.97433 55.49806 15249 ft 390 kts 133°
2026-05-04 12:52 24.95536 55.52022 15819 ft 393 kts 133°
2026-05-04 12:53 24.93558 55.54040 16318 ft 398 kts 145°
2026-05-04 12:53 24.91052 55.55428 16882 ft 399 kts 163°
2026-05-04 12:53 24.88353 55.55971 17413 ft 400 kts 176°
2026-05-04 12:53 24.85564 55.56180 17972 ft 403 kts 178°
2026-05-04 12:54 24.82714 55.56345 18458 ft 406 kts 178°
2026-05-04 12:54 24.79924 55.56517 18962 ft 407 kts 178°
2026-05-04 12:54 24.77096 55.56712 19471 ft 409 kts 178°
2026-05-04 12:54 24.74250 55.56921 19956 ft 411 kts 178°
2026-05-04 12:55 24.71389 55.57140 20441 ft 412 kts 178°
2026-05-04 12:55 24.68520 55.57361 20934 ft 414 kts 178°
2026-05-04 12:55 24.65641 55.57584 21417 ft 416 kts 178°
2026-05-04 12:55 24.62750 55.57807 21897 ft 417 kts 178°
2026-05-04 12:56 24.59844 55.58032 22361 ft 419 kts 178°
2026-05-04 12:56 24.56929 55.58256 22827 ft 421 kts 178°
2026-05-04 12:56 24.54003 55.58481 23274 ft 423 kts 178°
2026-05-04 12:56 24.51058 55.58708 23681 ft 425 kts 179°
2026-05-04 12:57 24.48095 55.58936 24017 ft 428 kts 179°
2026-05-04 12:57 24.45114 55.59165 24373 ft 430 kts 179°
2026-05-04 12:57 24.42119 55.59395 24709 ft 433 kts 179°
2026-05-04 12:57 24.39107 55.59626 25073 ft 435 kts 179°
2026-05-04 12:58 24.36073 55.59859 25401 ft 438 kts 179°
2026-05-04 12:58 24.33022 55.60093 25738 ft 441 kts 179°
2026-05-04 12:58 24.29953 55.60326 26101 ft 443 kts 180°
2026-05-04 12:58 24.26872 55.60322 26459 ft 442 kts 187°
2026-05-04 12:59 24.23830 55.59915 26845 ft 441 kts 194°
2026-05-04 12:59 24.20845 55.59129 27247 ft 441 kts 200°
2026-05-04 12:59 24.17892 55.58219 27632 ft 444 kts 199°
2026-05-04 12:59 24.14900 55.57316 28050 ft 447 kts 199°
2026-05-04 13:00 24.11933 55.56429 28484 ft 449 kts 199°
2026-05-04 13:00 24.08901 55.55524 28921 ft 452 kts 199°
2026-05-04 13:00 24.05851 55.54614 29352 ft 455 kts 200°
2026-05-04 13:00 24.02785 55.53699 29802 ft 458 kts 200°
2026-05-04 13:01 23.99704 55.52780 30199 ft 461 kts 200°
2026-05-04 13:01 23.96596 55.51855 30608 ft 464 kts 200°
2026-05-04 13:01 23.93461 55.50924 31010 ft 467 kts 200°
2026-05-04 13:01 23.91375 55.50305 31255 ft 469 kts 200°
2026-05-04 13:02 23.88216 55.49368 31654 ft 472 kts 200°
2026-05-04 13:02 23.83996 55.48116 32168 ft 476 kts 200°
2026-05-04 13:02 23.80786 55.47163 32535 ft 479 kts 199°
2026-05-04 13:02 23.78650 55.46528 32785 ft 481 kts 199°
2026-05-04 13:03 23.75411 55.45567 33174 ft 484 kts 199°
2026-05-04 13:03 23.72136 55.44595 33535 ft 488 kts 199°
2026-05-04 13:03 23.68846 55.43619 33887 ft 491 kts 199°
2026-05-04 13:03 23.65545 55.42640 34215 ft 493 kts 199°
2026-05-04 13:04 23.62223 55.41656 34587 ft 495 kts 199°
2026-05-04 13:04 23.58900 55.40673 35023 ft 495 kts 199°
2026-05-04 13:04 23.55575 55.39690 35494 ft 495 kts 199°
2026-05-04 13:04 23.52247 55.38707 35967 ft 494 kts 199°
2026-05-04 13:05 23.48922 55.37724 36436 ft 493 kts 199°
2026-05-04 13:05 23.45617 55.36747 36892 ft 492 kts 199°
2026-05-04 13:05 23.42310 55.35769 37337 ft 492 kts 199°
2026-05-04 13:05 23.39009 55.34794 37723 ft 493 kts 199°
2026-05-04 13:06 23.35677 55.33807 37762 ft 499 kts 199°
2026-05-04 13:06 23.29032 55.31848 37756 ft 494 kts 199°
2026-05-04 13:07 23.22371 55.29885 37755 ft 496 kts 199°
2026-05-04 13:07 23.15722 55.27926 37758 ft 496 kts 199°
2026-05-04 13:08 23.09169 55.25673 37752 ft 490 kts 209°
2026-05-04 13:08 23.03908 55.21943 37755 ft 483 kts 225°
2026-05-04 13:09 22.99650 55.16387 37764 ft 477 kts 242°
2026-05-04 13:09 22.96758 55.09948 37761 ft 475 kts 247°
2026-05-04 13:10 22.93932 55.03468 37768 ft 475 kts 247°
2026-05-04 13:10 22.91097 54.96988 37748 ft 474 kts 247°
2026-05-04 13:11 22.88273 54.90535 37732 ft 473 kts 247°
2026-05-04 13:11 22.85449 54.84087 37745 ft 472 kts 247°
2026-05-04 13:12 22.82648 54.77700 37725 ft 471 kts 247°
2026-05-04 13:12 22.79832 54.71287 37725 ft 471 kts 247°
2026-05-04 13:13 22.77017 54.64884 37721 ft 470 kts 247°
2026-05-04 13:13 22.74201 54.58488 37722 ft 470 kts 247°
2026-05-04 13:14 22.71380 54.52090 37724 ft 470 kts 247°
2026-05-04 13:14 22.68559 54.45696 37719 ft 470 kts 247°
2026-05-04 13:15 22.65741 54.39304 37724 ft 470 kts 247°
2026-05-04 13:15 22.62922 54.32913 37726 ft 471 kts 247°
2026-05-04 13:16 22.60114 54.26560 37725 ft 471 kts 247°
2026-05-04 13:16 22.57281 54.20159 37722 ft 471 kts 247°
2026-05-04 13:17 22.54444 54.13759 37740 ft 471 kts 247°
2026-05-04 13:17 22.51608 54.07367 37743 ft 471 kts 247°
2026-05-04 13:18 22.48766 54.00970 37740 ft 472 kts 247°
2026-05-04 13:18 22.45920 53.94572 37719 ft 471 kts 247°
2026-05-04 13:19 22.43096 53.88234 37722 ft 471 kts 247°
2026-05-04 13:19 22.40237 53.81823 37720 ft 471 kts 247°
2026-05-04 13:20 22.37407 53.75486 37717 ft 470 kts 247°
2026-05-04 13:20 22.34565 53.69130 37717 ft 470 kts 246°
2026-05-04 13:21 22.31717 53.62770 37728 ft 470 kts 246°
2026-05-04 13:21 22.28867 53.56411 37737 ft 470 kts 246°
2026-05-04 13:22 22.26012 53.50049 37730 ft 470 kts 246°
2026-05-04 13:22 22.23156 53.43692 37732 ft 471 kts 246°
2026-05-04 13:23 22.20313 53.37372 37719 ft 471 kts 246°
2026-05-04 13:23 22.17444 53.31004 37722 ft 471 kts 246°
2026-05-04 13:24 22.14580 53.24651 37732 ft 471 kts 246°
2026-05-04 13:24 22.11708 53.18292 37736 ft 471 kts 246°
2026-05-04 13:25 22.07394 53.08754 37733 ft 471 kts 246°
2026-05-04 13:25 22.04536 53.02446 37727 ft 471 kts 246°
2026-05-04 13:26 22.01652 52.96088 37729 ft 471 kts 246°
2026-05-04 13:26 21.98771 52.89743 37727 ft 471 kts 246°
2026-05-04 13:27 21.95883 52.83392 37734 ft 471 kts 246°
2026-05-04 13:27 21.92994 52.77047 37739 ft 471 kts 246°
2026-05-04 13:28 21.90123 52.70748 37727 ft 471 kts 246°
2026-05-04 13:28 21.87232 52.64417 37725 ft 471 kts 246°
2026-05-04 13:29 21.84334 52.58082 37734 ft 471 kts 246°
2026-05-04 13:29 21.81434 52.51748 37736 ft 471 kts 246°
2026-05-04 13:30 21.78533 52.45422 37732 ft 471 kts 246°
2026-05-04 13:30 21.75630 52.39097 37732 ft 471 kts 246°
2026-05-04 13:31 21.72712 52.32759 37736 ft 471 kts 245°
2026-05-04 13:31 21.69816 52.26483 37731 ft 472 kts 245°
2026-05-04 13:32 21.66894 52.20158 37725 ft 472 kts 245°
2026-05-04 13:32 21.63972 52.13842 37727 ft 472 kts 245°
2026-05-04 13:33 21.61044 52.07518 37733 ft 472 kts 245°
2026-05-04 13:33 21.58114 52.01197 37720 ft 472 kts 245°
2026-05-04 13:34 21.55197 51.94912 37724 ft 472 kts 245°
2026-05-04 13:34 21.52262 51.88596 37735 ft 472 kts 245°
2026-05-04 13:35 21.47863 51.79135 37732 ft 472 kts 246°
2026-05-04 13:36 21.45747 51.72496 37734 ft 469 kts 259°
2026-05-04 13:36 21.45092 51.65550 37739 ft 468 kts 271°
2026-05-04 13:37 21.45370 51.58579 37727 ft 468 kts 272°
2026-05-04 13:37 21.45623 51.51579 37727 ft 468 kts 272°
2026-05-04 13:38 21.45874 51.44585 37731 ft 468 kts 272°
2026-05-04 13:38 21.46124 51.37597 37733 ft 468 kts 272°
2026-05-04 13:39 21.46370 51.30656 37730 ft 468 kts 272°
2026-05-04 13:39 21.46615 51.23691 37740 ft 468 kts 272°
2026-05-04 13:40 21.46858 51.16687 37740 ft 468 kts 272°
2026-05-04 13:40 21.47098 51.09708 37730 ft 467 kts 272°
2026-05-04 13:41 21.47334 51.02732 37731 ft 467 kts 272°
2026-05-04 13:41 21.47567 50.95769 37741 ft 467 kts 272°
2026-05-04 13:42 21.47910 50.85348 37730 ft 467 kts 272°
2026-05-04 13:42 21.48136 50.78380 37729 ft 467 kts 272°
2026-05-04 13:43 21.48360 50.71405 37737 ft 467 kts 272°
2026-05-04 13:43 21.48579 50.64440 37735 ft 467 kts 272°
2026-05-04 13:44 21.48797 50.57467 37740 ft 467 kts 272°
2026-05-04 13:44 21.49011 50.50497 37733 ft 467 kts 271°
2026-05-04 13:45 21.49223 50.43514 37750 ft 467 kts 271°
2026-05-04 13:45 21.49431 50.36580 37730 ft 468 kts 271°
2026-05-04 13:46 21.49637 50.29596 37746 ft 468 kts 271°
2026-05-04 13:46 21.49840 50.22612 37739 ft 468 kts 271°
2026-05-04 13:47 21.50041 50.15624 37743 ft 468 kts 272°
2026-05-04 13:47 21.50786 50.08695 37745 ft 468 kts 281°
2026-05-04 13:48 21.52561 50.01955 37749 ft 470 kts 289°
2026-05-04 13:48 21.54995 49.95433 37755 ft 470 kts 290°
2026-05-04 13:49 21.57401 49.88942 37748 ft 470 kts 290°
2026-05-04 13:49 21.59821 49.82409 37749 ft 470 kts 290°
2026-05-04 13:50 21.61832 49.76979 37739 ft 470 kts 290°
2026-05-04 13:50 21.64642 49.69383 37745 ft 470 kts 290°
2026-05-04 13:51 21.67052 49.62862 37739 ft 470 kts 290°
2026-05-04 13:51 21.69465 49.56323 37739 ft 470 kts 289°
2026-05-04 13:52 21.72670 49.47619 37742 ft 469 kts 289°
2026-05-04 13:53 21.75071 49.41091 37745 ft 469 kts 289°
2026-05-04 13:53 21.77456 49.34596 37746 ft 469 kts 289°
2026-05-04 13:54 21.81052 49.24784 37743 ft 469 kts 289°
2026-05-04 13:55 21.84643 49.14968 37744 ft 469 kts 289°
2026-05-04 13:55 21.88224 49.05159 37746 ft 470 kts 289°
2026-05-04 13:56 21.90611 48.98608 37743 ft 470 kts 289°
2026-05-04 13:57 21.94171 48.88819 37747 ft 470 kts 289°
2026-05-04 13:58 21.98934 48.75693 37746 ft 470 kts 288°
2026-05-04 13:58 22.02503 48.65831 37747 ft 471 kts 288°
2026-05-04 13:59 22.04880 48.59250 37749 ft 471 kts 288°
2026-05-04 14:00 22.08428 48.49410 37748 ft 471 kts 288°
2026-05-04 14:00 22.11988 48.39521 37747 ft 471 kts 288°
2026-05-04 14:01 22.14352 48.32933 37746 ft 471 kts 288°
2026-05-04 14:02 22.17900 48.23029 37754 ft 471 kts 288°
2026-05-04 14:02 22.20261 48.16428 37753 ft 471 kts 288°
2026-05-04 14:03 22.22619 48.09826 37752 ft 471 kts 288°
2026-05-04 14:03 22.24977 48.03213 37755 ft 471 kts 288°
2026-05-04 14:04 22.28490 47.93345 37758 ft 471 kts 288°
2026-05-04 14:04 22.30834 47.86749 37763 ft 471 kts 288°
2026-05-04 14:05 22.34356 47.76818 37760 ft 471 kts 288°
2026-05-04 14:06 22.36682 47.70246 37759 ft 470 kts 288°
2026-05-04 14:06 22.39014 47.63650 37762 ft 470 kts 288°
2026-05-04 14:07 22.41346 47.57042 37764 ft 470 kts 288°
2026-05-04 14:07 22.43673 47.50439 37764 ft 470 kts 288°
2026-05-04 14:08 22.45999 47.43830 37771 ft 470 kts 288°
2026-05-04 14:08 22.48320 47.37225 37773 ft 470 kts 288°
2026-05-04 14:09 22.51788 47.27341 37779 ft 470 kts 288°
2026-05-04 14:10 22.55260 47.17427 37787 ft 470 kts 288°
2026-05-04 14:10 22.57571 47.10816 37793 ft 469 kts 288°
2026-05-04 14:11 22.59880 47.04202 37801 ft 469 kts 287°
2026-05-04 14:11 22.63322 46.94325 37809 ft 468 kts 287°
2026-05-04 14:12 22.65614 46.87732 37808 ft 468 kts 287°
2026-05-04 14:13 22.69050 46.77834 37819 ft 468 kts 287°
2026-05-04 14:13 22.71336 46.71235 37832 ft 467 kts 287°
2026-05-04 14:14 22.73620 46.64634 37834 ft 467 kts 287°
2026-05-04 14:14 22.77024 46.54774 37842 ft 467 kts 287°
2026-05-04 14:15 22.81403 46.41542 37847 ft 464 kts 282°
2026-05-04 14:16 22.82882 46.31261 37850 ft 459 kts 272°
2026-05-04 14:17 22.83646 46.20941 37848 ft 460 kts 272°
2026-05-04 14:18 22.84410 46.10576 37849 ft 459 kts 272°
2026-05-04 14:19 22.85409 45.96759 37847 ft 459 kts 272°
2026-05-04 14:19 22.85904 45.89853 37846 ft 459 kts 272°
2026-05-04 14:20 22.86393 45.82996 37844 ft 459 kts 272°
2026-05-04 14:20 22.86881 45.76104 37845 ft 458 kts 272°
2026-05-04 14:21 22.87606 45.65779 37846 ft 458 kts 272°
2026-05-04 14:21 22.88087 45.58882 37845 ft 457 kts 272°
2026-05-04 14:22 22.88563 45.52009 37845 ft 457 kts 272°
2026-05-04 14:22 22.89036 45.45140 37847 ft 457 kts 272°
2026-05-04 14:23 22.89739 45.34836 37850 ft 456 kts 271°
2026-05-04 14:24 22.90201 45.28018 37849 ft 456 kts 271°
2026-05-04 14:24 22.90662 45.21176 37851 ft 455 kts 271°
2026-05-04 14:25 22.91120 45.14328 37850 ft 454 kts 271°
2026-05-04 14:25 22.91801 45.04065 37851 ft 453 kts 271°
2026-05-04 14:26 22.92249 44.97237 37849 ft 453 kts 271°
2026-05-04 14:26 22.92690 44.90468 37850 ft 452 kts 271°
2026-05-04 14:27 22.93131 44.83662 37849 ft 452 kts 271°
2026-05-04 14:27 22.93569 44.76871 37852 ft 452 kts 271°
2026-05-04 14:28 22.94070 44.70071 37851 ft 452 kts 274°
2026-05-04 14:28 22.95362 44.63372 37848 ft 456 kts 282°
2026-05-04 14:29 22.99378 44.50313 37848 ft 456 kts 284°
2026-05-04 14:30 23.01386 44.43780 37847 ft 455 kts 284°
2026-05-04 14:31 23.04381 44.34038 37844 ft 455 kts 284°
2026-05-04 14:32 23.08379 44.21001 37853 ft 455 kts 284°
2026-05-04 14:32 23.10370 44.14492 37858 ft 454 kts 284°
2026-05-04 14:33 23.12362 44.07966 37863 ft 454 kts 284°
2026-05-04 14:33 23.14349 44.01451 37872 ft 454 kts 284°
2026-05-04 14:34 23.16334 43.94930 37883 ft 454 kts 284°
2026-05-04 14:34 23.18298 43.88466 37892 ft 453 kts 284°
2026-05-04 14:35 23.20271 43.81962 37896 ft 453 kts 284°
2026-05-04 14:35 23.22248 43.75431 38285 ft 455 kts 284°
2026-05-04 14:35 23.23234 43.72175 38830 ft 452 kts 284°
2026-05-04 14:36 23.24217 43.68925 39248 ft 451 kts 283°
2026-05-04 14:36 23.25194 43.65690 39632 ft 451 kts 283°
2026-05-04 14:36 23.26174 43.62439 39872 ft 455 kts 283°
2026-05-04 14:37 23.28115 43.56008 39916 ft 446 kts 283°
2026-05-04 14:37 23.30059 43.49539 39921 ft 447 kts 283°
2026-05-04 14:38 23.31990 43.43110 39928 ft 447 kts 283°
2026-05-04 14:38 23.33905 43.36725 39939 ft 446 kts 283°
2026-05-04 14:39 23.35841 43.30261 39945 ft 446 kts 283°
2026-05-04 14:39 23.37747 43.23888 39948 ft 445 kts 283°
2026-05-04 14:40 23.40610 43.14289 39955 ft 444 kts 283°
2026-05-04 14:40 23.42513 43.07886 39956 ft 444 kts 283°
2026-05-04 14:41 23.44409 43.01488 39956 ft 444 kts 283°
2026-05-04 14:42 23.47875 42.89771 39961 ft 444 kts 283°
2026-05-04 14:42 23.49764 42.83369 39960 ft 444 kts 282°
2026-05-04 14:43 23.51648 42.76975 39962 ft 444 kts 282°
2026-05-04 14:43 23.53538 42.70558 39968 ft 444 kts 282°
2026-05-04 14:44 23.55418 42.64175 39970 ft 445 kts 282°
2026-05-04 14:44 23.57290 42.57809 39972 ft 445 kts 282°
2026-05-04 14:45 23.59160 42.51434 39970 ft 445 kts 282°
2026-05-04 14:45 23.61042 42.45009 39967 ft 444 kts 282°
2026-05-04 14:46 23.62920 42.38588 39967 ft 444 kts 282°
2026-05-04 14:46 23.64795 42.32163 39967 ft 444 kts 282°
2026-05-04 14:47 23.66665 42.25741 39967 ft 444 kts 282°
2026-05-04 14:47 23.68529 42.19311 39954 ft 444 kts 282°
2026-05-04 14:48 23.70388 42.12887 39961 ft 444 kts 282°
2026-05-04 14:48 23.72237 42.06489 39959 ft 444 kts 282°
2026-05-04 14:49 23.74094 42.00050 39960 ft 445 kts 282°
2026-05-04 14:49 23.75952 41.93616 39961 ft 445 kts 282°
2026-05-04 14:50 23.77817 41.87165 39947 ft 445 kts 282°
2026-05-04 14:50 23.79673 41.80727 39944 ft 445 kts 282°
2026-05-04 14:51 23.81528 41.74283 39954 ft 444 kts 282°
2026-05-04 14:51 23.83375 41.67844 39953 ft 444 kts 282°
2026-05-04 14:52 23.85219 41.61408 39942 ft 444 kts 282°
2026-05-04 14:52 23.87057 41.54981 39954 ft 443 kts 282°
2026-05-04 14:53 23.88874 41.48591 39943 ft 443 kts 282°
2026-05-04 14:53 23.90696 41.42165 39942 ft 443 kts 282°
2026-05-04 14:54 23.92521 41.35722 39935 ft 442 kts 282°
2026-05-04 14:54 23.94342 41.29298 39934 ft 442 kts 282°
2026-05-04 14:55 23.96154 41.22905 39928 ft 442 kts 282°
2026-05-04 14:55 23.97970 41.16482 39925 ft 442 kts 282°
2026-05-04 14:56 23.99786 41.10050 39925 ft 442 kts 282°
2026-05-04 14:56 24.01596 41.03626 39925 ft 442 kts 281°
2026-05-04 14:57 24.03403 40.97201 39921 ft 442 kts 281°
2026-05-04 14:57 24.05197 40.90814 39921 ft 441 kts 281°
2026-05-04 14:58 24.06999 40.84385 39921 ft 441 kts 281°
2026-05-04 14:58 24.08778 40.78028 39925 ft 440 kts 281°
2026-05-04 14:59 24.10582 40.71570 39928 ft 440 kts 281°
2026-05-04 15:00 24.13258 40.61970 39924 ft 439 kts 281°
2026-05-04 15:00 24.15034 40.55585 39917 ft 438 kts 282°
2026-05-04 15:01 24.18638 40.46346 39916 ft 446 kts 291°
2026-05-04 15:01 24.21530 40.40351 39915 ft 445 kts 291°
2026-05-04 15:02 24.24400 40.34347 39921 ft 444 kts 291°
2026-05-04 15:02 24.27264 40.28355 39917 ft 443 kts 291°
2026-05-04 15:03 24.30124 40.22373 39916 ft 443 kts 291°
2026-05-04 15:03 24.32984 40.16381 39915 ft 442 kts 291°
2026-05-04 15:04 24.35813 40.10447 39914 ft 442 kts 291°
2026-05-04 15:04 24.38651 40.04488 39913 ft 441 kts 291°
2026-05-04 15:05 24.41492 39.98515 39907 ft 441 kts 290°
2026-05-04 15:05 24.44328 39.92542 39903 ft 441 kts 290°
2026-05-04 15:06 24.47159 39.86575 39909 ft 440 kts 291°
2026-05-04 15:07 24.51403 39.77620 39914 ft 440 kts 291°
2026-05-04 15:07 24.54812 39.72003 39913 ft 451 kts 302°
2026-05-04 15:08 24.59268 39.67033 39919 ft 463 kts 311°
2026-05-04 15:08 24.64482 39.62787 39917 ft 467 kts 315°
2026-05-04 15:09 24.69727 39.58594 39919 ft 466 kts 315°
2026-05-04 15:09 24.74711 39.54152 39916 ft 451 kts 303°
2026-05-04 15:10 24.80035 39.45844 39897 ft 442 kts 297°
2026-05-04 15:11 24.85424 39.37567 39905 ft 444 kts 298°
2026-05-04 15:11 24.89087 39.32088 39907 ft 444 kts 298°
2026-05-04 15:12 24.92722 39.26648 39907 ft 444 kts 298°
2026-05-04 15:12 24.96376 39.21167 39915 ft 443 kts 298°
2026-05-04 15:13 25.00020 39.15690 39908 ft 443 kts 298°
2026-05-04 15:13 25.03685 39.10176 39904 ft 442 kts 298°
2026-05-04 15:14 25.07312 39.04711 39902 ft 442 kts 298°
2026-05-04 15:14 25.10948 38.99228 39903 ft 442 kts 298°
2026-05-04 15:15 25.14550 38.93790 39898 ft 441 kts 298°
2026-05-04 15:15 25.18182 38.88303 39893 ft 440 kts 298°
2026-05-04 15:16 25.23596 38.80105 39888 ft 440 kts 298°
2026-05-04 15:17 25.28980 38.71941 39883 ft 441 kts 298°
2026-05-04 15:17 25.34405 38.63700 39886 ft 441 kts 298°
2026-05-04 15:18 25.38014 38.58210 39886 ft 442 kts 298°
2026-05-04 15:19 25.43427 38.49963 39877 ft 442 kts 298°
2026-05-04 15:19 25.48848 38.41691 39887 ft 443 kts 297°
2026-05-04 15:20 25.52460 38.36171 39896 ft 443 kts 297°
2026-05-04 15:20 25.56080 38.30633 39895 ft 444 kts 297°
2026-05-04 15:21 25.59702 38.25083 39887 ft 444 kts 297°
2026-05-04 15:22 25.65127 38.16761 39888 ft 444 kts 297°
2026-05-04 15:22 25.70528 38.08461 39892 ft 444 kts 297°
2026-05-04 15:23 25.74136 38.02908 39894 ft 444 kts 297°
2026-05-04 15:23 25.77751 37.97337 39899 ft 445 kts 297°
2026-05-04 15:24 25.84988 37.86165 39910 ft 445 kts 297°
2026-05-04 15:25 25.88599 37.80579 39916 ft 446 kts 297°
2026-05-04 15:26 25.94031 37.72168 39920 ft 445 kts 298°
2026-05-04 15:26 25.99409 37.63822 39915 ft 446 kts 297°
2026-05-04 15:27 26.04833 37.55389 39924 ft 447 kts 297°
2026-05-04 15:28 26.10262 37.46934 39936 ft 448 kts 297°
2026-05-04 15:29 26.15667 37.38503 39931 ft 448 kts 297°
2026-05-04 15:30 26.27718 37.19647 39940 ft 447 kts 297°
2026-05-04 15:31 26.33134 37.11135 39960 ft 451 kts 297°
2026-05-04 15:32 26.42199 36.96882 39964 ft 449 kts 297°
2026-05-04 15:34 26.51197 36.82682 39962 ft 446 kts 297°
2026-05-04 15:34 26.56557 36.74201 39944 ft 445 kts 297°
2026-05-04 15:35 26.61863 36.65788 39943 ft 442 kts 297°
2026-05-04 15:36 26.67169 36.57360 39942 ft 441 kts 296°
2026-05-04 15:36 26.70696 36.51750 39938 ft 440 kts 296°
2026-05-04 15:37 26.74207 36.46158 39929 ft 439 kts 296°
2026-05-04 15:37 26.77709 36.40573 39929 ft 438 kts 296°
2026-05-04 15:38 26.81201 36.34999 39928 ft 437 kts 296°
2026-05-04 15:38 26.84683 36.29432 39928 ft 436 kts 296°
2026-05-04 15:39 26.88154 36.23875 39920 ft 435 kts 296°
2026-05-04 15:40 26.93320 36.15594 39914 ft 433 kts 296°
2026-05-04 15:40 26.96771 36.10053 39909 ft 432 kts 296°
2026-05-04 15:41 27.00209 36.04527 39908 ft 432 kts 296°
2026-05-04 15:41 27.03645 35.98996 39915 ft 432 kts 296°
2026-05-04 15:42 27.07082 35.93456 39910 ft 432 kts 296°
2026-05-04 15:42 27.10511 35.87924 39911 ft 432 kts 296°
2026-05-04 15:43 27.13940 35.82383 39915 ft 432 kts 296°
2026-05-04 15:43 27.17349 35.76869 39918 ft 432 kts 296°
2026-05-04 15:44 27.20774 35.71321 39917 ft 432 kts 296°
2026-05-04 15:44 27.24196 35.65773 39914 ft 432 kts 296°
2026-05-04 15:45 27.27616 35.60220 39917 ft 432 kts 296°
2026-05-04 15:45 27.31034 35.54662 39916 ft 432 kts 296°
2026-05-04 15:46 27.34449 35.49104 39916 ft 432 kts 296°
2026-05-04 15:46 27.37867 35.43534 39921 ft 432 kts 296°
2026-05-04 15:47 27.41254 35.38006 39921 ft 432 kts 296°
2026-05-04 15:47 27.44669 35.32427 39921 ft 432 kts 296°
2026-05-04 15:48 27.48076 35.26853 39923 ft 432 kts 296°
2026-05-04 15:48 27.53162 35.18519 39922 ft 432 kts 296°
2026-05-04 15:49 27.56563 35.12938 39920 ft 432 kts 296°
2026-05-04 15:49 27.59963 35.07350 39921 ft 432 kts 296°
2026-05-04 15:50 27.63361 35.01758 39917 ft 431 kts 296°
2026-05-04 15:50 27.66749 34.96177 39918 ft 431 kts 296°
2026-05-04 15:51 27.70113 34.90627 39923 ft 431 kts 296°
2026-05-04 15:51 27.73495 34.85042 39921 ft 431 kts 296°
2026-05-04 15:52 27.76870 34.79461 39923 ft 430 kts 296°
2026-05-04 15:52 27.80247 34.73868 39924 ft 430 kts 296°
2026-05-04 15:53 27.83595 34.68317 39930 ft 430 kts 296°
2026-05-04 15:53 27.86957 34.62735 39927 ft 429 kts 296°
2026-05-04 15:54 27.90352 34.57083 39922 ft 443 kts 296°
2026-05-04 15:54 27.93857 34.51254 39914 ft 445 kts 296°
2026-05-04 15:55 27.97341 34.45464 39915 ft 447 kts 296°
2026-05-04 15:55 28.00856 34.39655 39911 ft 449 kts 299°
2026-05-04 15:56 28.04851 34.34165 39912 ft 453 kts 302°
2026-05-04 15:56 28.08918 34.28706 39926 ft 452 kts 301°
2026-05-04 15:57 28.12919 34.23201 39949 ft 452 kts 301°
2026-05-04 15:57 28.16901 34.17678 39969 ft 452 kts 301°
2026-05-04 15:58 28.20867 34.12171 39987 ft 450 kts 301°
2026-05-04 15:58 28.24832 34.06655 39991 ft 450 kts 301°
2026-05-04 15:59 28.28782 34.01155 40018 ft 446 kts 301°
2026-05-04 15:59 28.32699 33.95689 39989 ft 450 kts 301°
2026-05-04 16:00 28.36662 33.90156 39992 ft 451 kts 301°
2026-05-04 16:00 28.40622 33.84622 39991 ft 450 kts 301°
2026-05-04 16:01 28.44571 33.79096 39995 ft 449 kts 301°
2026-05-04 16:01 28.48472 33.73630 40000 ft 447 kts 301°
2026-05-04 16:02 28.52390 33.68127 40015 ft 448 kts 301°
2026-05-04 16:03 28.58287 33.59852 40029 ft 447 kts 301°
2026-05-04 16:03 28.62227 33.54325 40028 ft 448 kts 301°
2026-05-04 16:04 28.66145 33.48810 40028 ft 448 kts 301°
2026-05-04 16:04 28.70059 33.43284 39821 ft 448 kts 301°
2026-05-04 16:04 28.72008 33.40532 39597 ft 446 kts 301°
2026-05-04 16:05 28.73954 33.37783 39365 ft 445 kts 301°
2026-05-04 16:05 28.75901 33.35029 39144 ft 446 kts 301°
2026-05-04 16:05 28.79798 33.29509 38704 ft 446 kts 301°
2026-05-04 16:06 28.81721 33.26784 38433 ft 447 kts 301°
2026-05-04 16:06 28.86939 33.19378 37707 ft 449 kts 301°
2026-05-04 16:07 28.89531 33.15695 37048 ft 448 kts 301°
2026-05-04 16:07 28.95377 33.07375 34252 ft 451 kts 302°
2026-05-04 16:08 28.97341 33.04576 33259 ft 451 kts 302°
2026-05-04 16:08 29.03090 32.96392 31896 ft 435 kts 302°
2026-05-04 16:09 29.06859 32.90999 31026 ft 433 kts 302°
2026-05-04 16:09 29.10584 32.85672 29932 ft 424 kts 302°
2026-05-04 16:10 29.14207 32.80485 28867 ft 416 kts 302°
2026-05-04 16:11 29.19563 32.72799 27331 ft 407 kts 302°
2026-05-04 16:11 29.21325 32.70267 26831 ft 408 kts 302°
2026-05-04 16:12 29.26753 32.62447 25251 ft 417 kts 302°
2026-05-04 16:12 29.32078 32.54748 23723 ft 406 kts 302°
2026-05-04 16:13 29.35543 32.49691 22653 ft 400 kts 302°
2026-05-04 16:13 29.38959 32.44705 21665 ft 394 kts 302°
2026-05-04 16:14 29.42320 32.39798 20669 ft 389 kts 302°
2026-05-04 16:14 29.45640 32.34946 19699 ft 384 kts 302°
2026-05-04 16:15 29.49994 32.28569 18401 ft 378 kts 302°
2026-05-04 16:16 29.53624 32.23250 17261 ft 370 kts 303°
2026-05-04 16:16 29.57819 32.17091 16002 ft 366 kts 303°
2026-05-04 16:17 29.60930 32.12516 15042 ft 362 kts 303°
2026-05-04 16:18 29.65392 32.05963 13610 ft 332 kts 303°
2026-05-04 16:18 29.66783 32.03912 13305 ft 317 kts 303°
2026-05-04 16:19 29.70759 31.98035 12033 ft 314 kts 304°
2026-05-04 16:19 29.73425 31.94098 11242 ft 306 kts 304°
2026-05-04 16:20 29.77200 31.88526 10404 ft 277 kts 304°
2026-05-04 16:20 29.79477 31.85126 10021 ft 264 kts 303°
2026-05-04 16:21 29.82712 31.80034 9542 ft 263 kts 303°
2026-05-04 16:22 29.84850 31.76692 9075 ft 255 kts 303°
2026-05-04 16:22 29.87902 31.71935 8355 ft 240 kts 303°
2026-05-04 16:23 29.90908 31.67298 7630 ft 239 kts 309°
2026-05-04 16:24 29.96766 31.63629 6627 ft 245 kts 333°
2026-05-04 16:25 29.99867 31.62037 6099 ft 242 kts 333°
2026-05-04 16:26 30.06269 31.62359 5848 ft 252 kts 21°
2026-05-04 16:26 30.10782 31.64761 5533 ft 229 kts 20°
2026-05-04 16:27 30.13687 31.66278 5106 ft 227 kts 19°
2026-05-04 16:28 30.17469 31.65177 4489 ft 182 kts 315°
2026-05-04 16:28 30.20200 31.62391 3569 ft 171 kts 318°
2026-05-04 16:29 30.21851 31.57991 2766 ft 179 kts 238°
2026-05-04 16:30 30.19550 31.55059 2154 ft 163 kts 236°
2026-05-04 16:31 30.18104 31.53104 2096 ft 157 kts 235°
2026-05-04 16:31 30.15905 31.50162 1585 ft 153 kts 235°
2026-05-04 16:32 30.13946 31.47559 996 ft 142 kts 237°
2026-05-04 16:33 30.12627 31.45785 595 ft 144 kts 236°
2026-05-04 16:33 30.11415 31.44155 377 ft 115 kts 229°
2026-05-04 16:34 30.10699 31.43210 378 ft 53 kts 230°
2026-05-04 16:34 30.10470 31.42904 377 ft 49 kts 230°
2026-05-04 16:35 30.09807 31.42027 378 ft 24 kts 229°
2026-05-04 16:35 30.09810 31.41829 379 ft 12 kts 326°
2026-05-04 16:36 30.09883 31.41758 379 ft 15 kts 317°
2026-05-04 16:36 30.09900 31.41522 379 ft 18 kts 259°
2026-05-04 16:37 30.09848 31.41207 379 ft 22 kts 258°
2026-05-04 16:37 30.09818 31.41032 379 ft 22 kts 259°
2026-05-04 16:37 30.09790 31.40765 379 ft 13 kts 298°
2026-05-04 16:38 30.09935 31.40613 379 ft 15 kts 319°
2026-05-04 16:39 30.10166 31.40384 379 ft 15 kts 320°
2026-05-04 16:39 30.10317 31.40235 379 ft 14 kts 317°
2026-05-04 16:40 30.10456 31.40119 380 ft 11 kts
2026-05-04 16:40 30.10595 31.40264 380 ft 18 kts 46°
2026-05-04 16:41 30.10717 31.40305 379 ft 7 kts 355°
2026-05-04 16:41 30.10867 31.40460 379 ft 10 kts 23°
2026-05-04 16:42 30.10986 31.40407 379 ft 7 kts 16°
2026-05-04 16:43 30.11019 31.40419 379 ft 0 kts 18°
2026-05-04 16:43 30.11024 31.40421 379 ft 0 kts 17°